This is the latest recevied weather packets stored in our database for station/object N9BLE. If no packets are shown the sender has not sent any weather packets the latest 10 day(s).
| Time | Temp. | Humidity | Pressure | Rain* | Wind** | Luminosity | Snow |
|---|---|---|---|---|---|---|---|
| 1777740222 | 10.56° C | 47% | 1023.4 hPa | 0 mm | - | 127 W/m² | - |
| 1777739918 | 10° C | 47% | 1023.5 hPa | 0 mm | - | 89 W/m² | - |
| 1777739614 | 10° C | 48% | 1023.4 hPa | 0 mm | - | 107 W/m² | - |
| 1777739312 | 10° C | 47% | 1023.7 hPa | 0 mm | - | 107 W/m² | - |
| 1777739008 | 10.56° C | 52% | 1023.6 hPa | 0 mm | - | 107 W/m² | - |
| 1777738705 | 10.56° C | 48% | 1023.7 hPa | 0 mm | - | 75 W/m² | - |
| 1777738401 | 10° C | 53% | 1023.8 hPa | 0 mm | - | 76 W/m² | - |
| 1777738099 | 9.44° C | 58% | 1023.7 hPa | 0 mm | - | 97 W/m² | - |
| 1777737798 | 9.44° C | 54% | 1023.8 hPa | 0 mm | - | 107 W/m² | - |
| 1777737497 | 8.89° C | 54% | 1023.9 hPa | 0 mm | - | 77 W/m² | - |
| 1777737194 | 9.44° C | 53% | 1023.8 hPa | 0 mm | - | 96 W/m² | - |
| 1777736889 | 9.44° C | 53% | 1023.7 hPa | 0 mm | - | 90 W/m² | - |
| 1777736276 | 8.89° C | 51% | 1023.7 hPa | 0 mm | - | 129 W/m² | - |
| 1777735972 | 8.89° C | 53% | 1023.9 hPa | 0 mm | - | 252 W/m² | - |
| 1777735670 | 8.89° C | 57% | 1023.9 hPa | 0 mm | - | 86 W/m² | - |
| 1777735367 | 8.89° C | 58% | 1023.9 hPa | 0 mm | - | 69 W/m² | - |
| 1777735064 | 8.33° C | 56% | 1023.8 hPa | 0 mm | - | 51 W/m² | - |
| 1777734761 | 8.33° C | 57% | 1023.9 hPa | 0 mm | - | 49 W/m² | - |
| 1777734459 | 7.78° C | 61% | 1023.7 hPa | 0 mm | - | 49 W/m² | - |
| 1777734156 | 7.22° C | 59% | 1023.8 hPa | 0 mm | - | 130 W/m² | - |
| 1777733852 | 7.22° C | 58% | 1023.9 hPa | 0 mm | - | 160 W/m² | - |
| 1777733548 | 7.78° C | 60% | 1023.9 hPa | 0 mm | - | 47 W/m² | - |
| 1777733245 | 7.22° C | 60% | 1024.2 hPa | 0 mm | - | 237 W/m² | - |
| 1777732942 | 7.22° C | 59% | 1024 hPa | 0 mm | - | 47 W/m² | - |
| 1777732638 | 7.22° C | 59% | 1024 hPa | 0 mm | - | 56 W/m² | - |
* Rain latest hour (hover to see other rain measurements)
** Current wind speed in m/s (hover to see current wind gust speed)